{"data":{"norad_id":39091,"epoch":"2026-05-25T02:00:27.377280Z","epoch_age_seconds":63745,"freshness":"FRESH","line1":"1 39091U 13009F   26145.08365020  .00000136  00000+0  60759-4 0  9997","line2":"2 39091  98.3990 325.0921 0009244 314.1871  45.8555 14.36531402693737","mean_motion":14.36531402,"eccentricity":0.0009244,"inclination_deg":98.399,"raan_deg":325.0921,"arg_perigee_deg":314.1871,"mean_anomaly_deg":45.8555,"bstar":6.0759e-5,"rev_number":69373,"period_min":100.24145646905,"perigee_km":763.37402861696,"apogee_km":776.5894705612,"semimajor_km":7148.1187495891,"source":"CELESTRAK","updated_at":"2026-05-25T13:38:25.491346Z"}}